ATLAS 5 CENTAUR DEB, 46638

Orbit data source: Space-Track

ATLAS 5 CENTAUR DEB, 46638 is space debris in HEO originally from a launch on Wed, 17 Sep 2014 UTC launched from the Air Force Eastern Test Range (AFETR). Debris objects in space refer to the collection of defunct objects orbiting the Earth. Examples of debris include non-operational satellites, rocket bodies, and fragments generated from explosions, collisions, or faulty payload assembly.

Loading next visibility...
Identifier
46638, 2014-055CN
Orbit
HEO
Country
Flag of USUS
Related business
Flag of USUnited Launch Alliance/Lockheed Martin (US)
Manufacturer
Unknown
Mission
Spacecraft
Bus & Motor
Unknown
Mass
Unknown
Launch date (UTC)
2014-09-17 (11 years ago)
Launch vehicle
Unknown
Launch site
Air Force Eastern Test Range (AFETR)
Object type
Payload
Rocket body
Debris
Shape & HBR
Unknown shape, 1.1 m
Radar Cross Section
Small (<0.1 m²)

Expand to show TLE details & history
Last TLE update: 2 months ago

TLE from 2 months ago
0 ATLAS 5 CENTAUR DEB
1 46638U 14055CN  25228.13763668 -.00000180  00000-0  00000-0 0  9991
2 46638  20.8292 128.8565 5148013 197.4153 134.8661  1.92367284 34142
Epoch: 2025-08-16T03:18Z
TLE epoch observation values (Epoch: 2025-08-16T03:18:11.809Z)
Latitude
0.00004°
Longitude
114.55529°
Altitude
33,093.618 km
Speed
2.367 km/s
True Right ascension
08h 35m 31s
True Declination
0° 00' 00"
Sunlit
Object was in daylight at epoch
Visualization orbit readout
Latitude
Unknown
Longitude
Unknown
Altitude
Unknown
Speed
Unknown
Apparent Right ascension
Unknown
Apparent Declination
Unknown
Sunlit
N/A
Visualization observer readout
Local Sidereal Time
16:55:29
Azimuth
Unknown
Elevation
Unknown
Doppler factor
Unknown
Orbital elements
Apogee altitude
34,993.555 km
Perigee altitude
6,873.43 km
Semi-major axis
27,311.63 km
Eccentricity
0.5148
Inclination
20.8292°
RAAN
128.8565°
Arg. of periapsis
197.4153°
True anomaly
162.5955°
Mean anomaly
134.8661°
Eccentric anomaly
149.73296°
Mean motion
0.48086 °/min
Orbital period
748.65 mins
BSTAR
0
Loading maneuver chart data...
Computing Atmospheric mass density...

Documentation

Showing up to 5 results
|